�������l�o���
Date,Time,MP-1(��Sv/h),MP-2(��Sv/h),MP-3(��Sv/h),MP-4(��Sv/h),MP-5(��Sv/h),MP-6(��Sv/h),MP-7(��Sv/h),����,����(m/s),���J
2016/02/07,00:00,0.445,0.262,0.469,0.425,0.391,0.216,0.188,�k,9.3,��
2016/02/07,00:10,0.447,0.264,0.468,0.426,0.393,0.216,0.188,�k,9.2,��
2016/02/07,00:20,0.447,0.261,0.467,0.426,0.391,0.215,0.188,�k,9.3,��
2016/02/07,00:30,0.446,0.261,0.469,0.426,0.391,0.215,0.188,�k,8.7,��
2016/02/07,00:40,0.447,0.262,0.468,0.426,0.393,0.216,0.189,�k,10.3,��
2016/02/07,00:50,0.448,0.262,0.467,0.424,0.392,0.216,0.188,�k,10.6,��
2016/02/07,01:00,0.446,0.263,0.469,0.425,0.392,0.216,0.188,�k�k��,11.5,��
2016/02/07,01:10,0.447,0.262,0.468,0.426,0.393,0.215,0.189,�k,12.0,��
2016/02/07,01:20,0.446,0.263,0.469,0.428,0.392,0.215,0.189,�k,10.6,��
2016/02/07,01:30,0.448,0.262,0.470,0.427,0.393,0.216,0.188,�k�k��,9.8,��
2016/02/07,01:40,0.448,0.263,0.469,0.426,0.394,0.216,0.188,�k�k��,8.7,��
2016/02/07,01:50,0.446,0.263,0.469,0.426,0.395,0.216,0.188,�k�k��,8.5,��
2016/02/07,02:00,0.448,0.262,0.468,0.428,0.393,0.216,0.189,�k�k��,7.7,��
2016/02/07,02:10,0.447,0.262,0.471,0.427,0.393,0.216,0.188,�k�k��,8.2,��
2016/02/07,02:20,0.447,0.263,0.469,0.426,0.393,0.217,0.188,�k�k��,9.2,��
2016/02/07,02:30,0.447,0.263,0.469,0.426,0.392,0.217,0.189,�k�k��,10.6,��
2016/02/07,02:40,0.447,0.263,0.470,0.425,0.393,0.216,0.189,�k�k��,10.6,��
2016/02/07,02:50,0.447,0.262,0.468,0.426,0.393,0.216,0.188,�k,10.7,��
2016/02/07,03:00,0.449,0.262,0.470,0.428,0.392,0.216,0.188,�k,10.0,��
2016/02/07,03:10,0.447,0.261,0.469,0.427,0.391,0.215,0.188,�k,10.1,��
2016/02/07,03:20,0.447,0.263,0.469,0.426,0.393,0.217,0.189,�k,9.5,��
2016/02/07,03:30,0.446,0.261,0.469,0.426,0.393,0.216,0.188,�k,8.1,��
2016/02/07,03:40,0.447,0.262,0.471,0.428,0.393,0.215,0.188,�k,8.7,��
2016/02/07,03:50,0.447,0.262,0.468,0.426,0.393,0.216,0.189,�k,7.4,��
2016/02/07,04:00,0.446,0.262,0.471,0.425,0.392,0.216,0.188,�k,6.3,��
2016/02/07,04:10,0.447,0.262,0.470,0.425,0.391,0.216,0.187,�k�k��,6.3,��
2016/02/07,04:20,0.449,0.263,0.468,0.426,0.393,0.216,0.188,�k�k��,6.4,��
2016/02/07,04:30,0.446,0.262,0.470,0.425,0.393,0.215,0.188,�k,7.3,��
2016/02/07,04:40,0.447,0.262,0.469,0.426,0.393,0.216,0.187,�k,6.8,��
2016/02/07,04:50,0.447,0.261,0.470,0.426,0.393,0.216,0.188,�k,8.1,��
2016/02/07,05:00,0.446,0.261,0.469,0.426,0.393,0.216,0.188,�k,7.6,��
2016/02/07,05:10,0.447,0.262,0.468,0.426,0.391,0.216,0.188,�k�k��,8.7,��
2016/02/07,05:20,0.448,0.262,0.469,0.426,0.392,0.215,0.188,�k�k��,8.1,��
2016/02/07,05:30,0.447,0.262,0.470,0.426,0.392,0.215,0.187,�k�k��,8.4,��
2016/02/07,05:40,0.446,0.262,0.469,0.427,0.392,0.216,0.187,�k�k��,9.8,��
2016/02/07,05:50,0.448,0.261,0.470,0.426,0.393,0.216,0.188,�k,10.1,��
2016/02/07,06:00,0.447,0.263,0.469,0.425,0.391,0.216,0.187,�k,10.4,��
2016/02/07,06:10,0.447,0.261,0.469,0.425,0.391,0.216,0.188,�k,11.4,��
2016/02/07,06:20,0.448,0.261,0.470,0.426,0.391,0.215,0.188,�k�k��,7.9,��
2016/02/07,06:30,0.446,0.263,0.468,0.426,0.391,0.215,0.188,�k�k��,4.1,��
2016/02/07,06:40,0.445,0.262,0.469,0.425,0.392,0.215,0.188,�k,2.7,��
2016/02/07,06:50,0.448,0.261,0.468,0.424,0.392,0.216,0.189,�k�k��,2.7,��
2016/02/07,07:00,0.447,0.263,0.468,0.426,0.392,0.216,0.188,�k�k��,3.3,��
2016/02/07,07:10,0.448,0.262,0.468,0.425,0.391,0.215,0.187,�k,3.5,��
2016/02/07,07:20,0.446,0.262,0.469,0.425,0.391,0.216,0.188,�k�k��,3.2,��
2016/02/07,07:30,0.447,0.261,0.469,0.426,0.392,0.216,0.188,�k�k��,3.2,��
2016/02/07,07:40,0.448,0.260,0.467,0.424,0.391,0.215,0.189,�k�k��,3.8,��
2016/02/07,07:50,0.448,0.263,0.468,0.426,0.392,0.216,0.188,�k,4.2,��
2016/02/07,08:00,0.448,0.262,0.469,0.427,0.392,0.217,0.188,�k,3.4,��
2016/02/07,08:10,0.445,0.261,0.470,0.424,0.392,0.216,0.188,�k�k��,2.7,��
2016/02/07,08:20,0.447,0.261,0.468,0.425,0.392,0.215,0.188,�k��,2.2,��
2016/02/07,08:30,0.446,0.261,0.467,0.425,0.391,0.215,0.189,�k�k��,2.1,��
2016/02/07,08:40,0.447,0.262,0.469,0.426,0.391,0.215,0.188,�k�k��,2.4,��
2016/02/07,08:50,0.446,0.262,0.469,0.426,0.393,0.216,0.187,�k�k��,1.8,��
2016/02/07,09:00,0.446,0.261,0.471,0.425,0.391,0.215,0.188,�k,2.7,��
2016/02/07,09:10,0.446,0.261,0.471,0.425,0.391,0.216,0.188,�k,3.3,��
2016/02/07,09:20,0.447,0.261,0.467,0.424,0.390,0.215,0.188,�k��,2.4,��
2016/02/07,09:30,0.446,0.261,0.468,0.422,0.390,0.216,0.187,�k�k��,2.3,��
2016/02/07,09:40,0.446,0.259,0.470,0.425,0.392,0.215,0.189,�k��,2.5,��
2016/02/07,09:50,0.446,0.260,0.469,0.426,0.391,0.215,0.187,�k��,3.1,��
2016/02/07,10:00,0.447,0.260,0.467,0.424,0.392,0.215,0.189,�k�k��,3.3,��
2016/02/07,10:10,0.446,0.261,0.471,0.426,0.394,0.215,0.188,�k�k��,4.0,��
2016/02/07,10:20,0.448,0.261,0.471,0.425,0.392,0.215,0.190,�k,4.5,��
2016/02/07,10:30,0.447,0.262,0.469,0.425,0.391,0.215,0.188,�k�k��,4.3,��
2016/02/07,10:40,0.444,0.261,0.466,0.427,0.393,0.216,0.190,�k,4.0,��
2016/02/07,10:50,0.448,0.262,0.470,0.425,0.394,0.215,0.189,�k��,5.4,��
2016/02/07,11:00,0.447,0.261,0.467,0.426,0.390,0.216,0.188,�k�k��,5.5,��
2016/02/07,11:10,0.448,0.260,0.468,0.426,0.394,0.217,0.189,�k�k��,4.1,��
2016/02/07,11:20,0.449,0.262,0.470,0.425,0.393,0.216,0.190,�k�k��,3.9,��
2016/02/07,11:30,0.449,0.261,0.468,0.427,0.393,0.216,0.188,�k�k��,2.3,��
2016/02/07,11:40,0.449,0.262,0.467,0.426,0.395,0.216,0.187,�k��,2.0,��
2016/02/07,11:50,0.451,0.262,0.469,0.426,0.393,0.215,0.188,�k,1.7,��
2016/02/07,12:00,0.450,0.263,0.469,0.428,0.393,0.215,0.189,�k�k��,1.7,��
2016/02/07,12:10,0.449,0.262,0.468,0.427,0.394,0.216,0.189,�k,6.2,��
2016/02/07,12:20,0.451,0.262,0.472,0.427,0.395,0.215,0.190,�k,7.7,��
2016/02/07,12:30,0.450,0.263,0.471,0.427,0.392,0.216,0.189,�k,4.1,��
2016/02/07,12:40,0.449,0.263,0.470,0.428,0.394,0.216,0.188,�k�k��,4.5,��
2016/02/07,12:50,0.451,0.262,0.471,0.427,0.393,0.216,0.188,�k,4.0,��
2016/02/07,13:00,0.450,0.261,0.469,0.426,0.392,0.215,0.188,�k,3.6,��
2016/02/07,13:10,0.449,0.263,0.468,0.423,0.393,0.216,0.188,�k��,2.4,��
2016/02/07,13:20,0.449,0.263,0.470,0.427,0.393,0.217,0.188,��,6.3,��
2016/02/07,13:30,0.450,0.261,0.465,0.423,0.393,0.215,0.187,���쐼,6.3,��
2016/02/07,13:40,0.449,0.263,0.468,0.426,0.394,0.215,0.189,���k��,4.2,��
2016/02/07,13:50,0.450,0.261,0.467,0.424,0.393,0.216,0.188,���k��,7.0,��
2016/02/07,14:00,0.450,0.261,0.469,0.428,0.396,0.216,0.189,���k��,7.0,��
2016/02/07,14:10,0.447,0.261,0.469,0.425,0.393,0.216,0.188,��,8.4,��
2016/02/07,14:20,0.450,0.263,0.470,0.427,0.397,0.217,0.188,���k��,7.5,��
2016/02/07,14:30,0.449,0.261,0.472,0.427,0.396,0.217,0.189,���k��,5.5,��
2016/02/07,14:40,0.449,0.263,0.472,0.427,0.395,0.216,0.190,�k��,5.5,��
2016/02/07,14:50,0.451,0.262,0.471,0.429,0.395,0.216,0.191,�k��,7.1,��
2016/02/07,15:00,0.452,0.261,0.471,0.430,0.396,0.216,0.188,���k��,6.8,��
2016/02/07,15:10,0.449,0.263,0.473,0.428,0.394,0.216,0.189,�k��,6.7,��
2016/02/07,15:20,0.448,0.264,0.470,0.428,0.393,0.216,0.190,���k��,5.6,��
2016/02/07,15:30,0.452,0.262,0.469,0.431,0.395,0.217,0.190,���k��,6.2,��
2016/02/07,15:40,0.450,0.264,0.472,0.428,0.395,0.216,0.189,��,6.8,��
2016/02/07,15:50,0.449,0.263,0.469,0.429,0.394,0.215,0.189,��,7.0,��
2016/02/07,16:00,0.452,0.263,0.470,0.429,0.394,0.216,0.189,���k��,6.6,��
2016/02/07,16:10,0.450,0.261,0.473,0.429,0.393,0.216,0.189,���k��,8.1,��
2016/02/07,16:20,0.451,0.262,0.472,0.427,0.393,0.218,0.189,��,5.0,��
2016/02/07,16:30,0.451,0.263,0.470,0.428,0.394,0.217,0.189,��,6.8,��
2016/02/07,16:40,0.450,0.264,0.472,0.430,0.395,0.216,0.190,��,6.1,��
2016/02/07,16:50,0.450,0.264,0.473,0.429,0.393,0.216,0.189,���k��,6.4,��
2016/02/07,17:00,0.449,0.263,0.471,0.428,0.395,0.216,0.189,���k��,8.1,��
2016/02/07,17:10,0.449,0.263,0.470,0.428,0.394,0.217,0.189,���k��,7.8,��
2016/02/07,17:20,0.449,0.262,0.472,0.429,0.395,0.217,0.190,�k��,7.0,��
2016/02/07,17:30,0.450,0.263,0.473,0.428,0.394,0.216,0.190,�k��,4.4,��
2016/02/07,17:40,0.451,0.264,0.472,0.427,0.395,0.216,0.189,���k��,5.0,��
2016/02/07,17:50,0.448,0.264,0.471,0.427,0.395,0.217,0.188,���k��,6.5,��
2016/02/07,18:00,0.450,0.263,0.472,0.429,0.394,0.217,0.189,���k��,7.7,��
2016/02/07,18:10,0.450,0.264,0.472,0.430,0.396,0.216,0.189,���k��,7.6,��
2016/02/07,18:20,0.450,0.263,0.472,0.428,0.394,0.216,0.189,���k��,6.4,��
2016/02/07,18:30,0.450,0.264,0.472,0.428,0.394,0.216,0.189,���k��,8.8,��
2016/02/07,18:40,0.450,0.263,0.471,0.428,0.394,0.217,0.190,���k��,7.1,��
2016/02/07,18:50,0.448,0.263,0.474,0.430,0.394,0.216,0.189,�k��,4.7,��
2016/02/07,19:00,0.451,0.265,0.473,0.428,0.395,0.217,0.189,�k��,3.5,��
2016/02/07,19:10,0.449,0.263,0.471,0.428,0.396,0.217,0.190,�k��,5.8,��
2016/02/07,19:20,0.450,0.263,0.471,0.428,0.394,0.217,0.190,�k��,6.6,��
2016/02/07,19:30,0.448,0.262,0.473,0.428,0.393,0.217,0.189,���k��,5.6,��
2016/02/07,19:40,0.451,0.262,0.474,0.431,0.393,0.217,0.190,���k��,4.9,��
2016/02/07,19:50,0.449,0.264,0.472,0.428,0.394,0.216,0.190,�k��,5.0,��
2016/02/07,20:00,0.450,0.263,0.472,0.429,0.393,0.217,0.188,�k��,5.4,��
2016/02/07,20:10,0.449,0.263,0.471,0.429,0.394,0.215,0.190,�k��,5.5,��
2016/02/07,20:20,0.450,0.263,0.471,0.428,0.395,0.217,0.190,���k��,5.0,��
2016/02/07,20:30,0.449,0.263,0.472,0.429,0.394,0.216,0.189,�k��,5.9,��
2016/02/07,20:40,0.450,0.264,0.472,0.429,0.394,0.218,0.189,�k��,5.9,��
2016/02/07,20:50,0.451,0.264,0.470,0.428,0.393,0.216,0.189,�k�k��,8.2,��
2016/02/07,21:00,0.449,0.263,0.471,0.428,0.394,0.216,0.190,�k�k��,10.6,��
2016/02/07,21:10,0.451,0.264,0.471,0.428,0.395,0.216,0.190,�k�k��,11.4,��
2016/02/07,21:20,0.450,0.262,0.472,0.430,0.394,0.216,0.190,�k�k��,9.0,��
2016/02/07,21:30,0.451,0.264,0.474,0.429,0.392,0.217,0.190,�k�k��,8.1,��
2016/02/07,21:40,0.451,0.264,0.472,0.428,0.394,0.217,0.190,�k�k��,8.9,��
2016/02/07,21:50,0.450,0.264,0.473,0.429,0.395,0.218,0.190,�k��,7.3,��
2016/02/07,22:00,0.450,0.266,0.472,0.429,0.394,0.218,0.190,�k�k��,7.3,��
2016/02/07,22:10,0.451,0.264,0.472,0.430,0.394,0.218,0.189,�k�k��,7.3,��
2016/02/07,22:20,0.450,0.263,0.475,0.429,0.396,0.216,0.190,�k�k��,7.6,��
2016/02/07,22:30,0.449,0.262,0.472,0.428,0.395,0.216,0.190,�k�k��,7.3,��
2016/02/07,22:40,0.450,0.264,0.473,0.428,0.394,0.217,0.189,�k�k��,7.0,��
2016/02/07,22:50,0.450,0.263,0.472,0.428,0.393,0.217,0.190,�k�k��,6.3,��
2016/02/07,23:00,0.451,0.262,0.473,0.428,0.393,0.217,0.190,�k�k��,6.6,��
2016/02/07,23:10,0.451,0.263,0.473,0.428,0.393,0.216,0.189,�k�k��,6.1,��
2016/02/07,23:20,0.450,0.263,0.471,0.428,0.395,0.216,0.190,�k�k��,4.4,��
2016/02/07,23:30,0.448,0.264,0.472,0.429,0.394,0.217,0.190,�k�k��,6.1,��
2016/02/07,23:40,0.448,0.263,0.473,0.429,0.392,0.217,0.190,�k��,7.6,��
2016/02/07,23:50,0.449,0.263,0.472,0.428,0.394,0.216,0.190,��,0.8,��
